FENGYUN 1C DEB

Satellite information

Favourite Embed

Satellite Type and Status

DEBRISIN ORBIT

Key statistics

Satellite FENGYUN 1C DEB at a glance.

Uptime

9554

Days in orbit

Revolutions

≈ 14.3

Per day

Orbit

SSO

Sun Synchronous Orbit

Inclination

99.0

Latest

Satellite identification and parameters

Extended collection of information and parameters for FENGYUN 1C DEB.

Object identification

Identified? True

Debris? True

Object name: FENGYUN 1C DEB

International designator: 1999-025BCN

Object number (NORAD): 30996

Object ID (CCSDS): 30996

Country: PEOPLES REPUBLIC OF CHINA (PRC)

Current information (Y/N): Y

RCS size: SMALL

Orbital parameters

Period: 100.385 minutes

Inclination: 98.9532 deg

SMA: 7154.937 km

Apoapsis: 814.542 km

Periapsis: 739.062 km

RAAN: 85.5315 deg

Eccentricy: 0.0052747

Argument of periapsis: 41.4902 deg

Mean anomaly: 87.1221 deg

Mean motion: 14.34478534 rev/day

Mean motion (dot): 0.00001653 rev/day2

B* drag term: 0.00059376 1/REarth

Two-line elements (TLE)

Creation date: July 5, 2025, 5:45 p.m.

Reference frame: TEME

Reference center: EARTH

Epoch: July 5, 2025, 6:48 a.m. UTC

TLE line 0: 0 FENGYUN 1C DEB

TLE line 1: 1 30996U 99025BCN 25186.28336828 .00001653 00000-0 59376-3 0 9992

TLE line 2: 2 30996 98.9532 85.5315 0052747 41.4902 87.1221 14.34478534952625

Live tracking on map

Real-time ground track for satellite FENGYUN 1C DEB.

In-orbit conjunctions

A list of the most updated potential collisions computed for object FENGYUN 1C DEB.

Target Orbit TCA Probability of collision Miss distance Type
ARIANE 40 R/B SSO 2025-05-20 13:09:47 0.0001891094 640.0 (m) ROCKET BODY
CZ-6A DEB SSO 2024-06-13 12:23:00 0.0002204781 171.0 (m) DEBRIS

Associated space launch

Chinese polar orbiting meteorological satellite

FENGYUN 1C DEB was lifted into orbit during the mission ‘Long March 4B | Feng Yun 1C’, on board a Long March 4B space rocket.

The launch took place on May 10, 1999, 1:33 a.m. from Launch Complex 7.

For more information about the launch, click the button.

Launch to space Long March 4B | Feng Yun 1C
Long March 4B | Feng Yun 1C

Agency: N/A

Status: Launch Successful

Launch date: May 10, 1999, 1:33 a.m. UTC

Rocket: Long March 4B

Launch pad: Launch Complex 7

Location: Taiyuan Satellite Launch Center, People's Republic of China

...

Latest news about this satellite

There are no fresh news available about this satellite. Check back as we update our databases every day.


Newsletter sign-up

Weekly statistics, charts and insights to help you stay on top of the space industry.